#timestamp,LO_Frequency,Hit,StdDev 
1567936815.4,286046985.3,N
1567936835.3,286046988.2,N
1567936855.1,286046989.9,N
1567936856.0,286046989.9,N
1567936875.8,286046991.0,N
1567936895.7,286046994.5,N
1567936915.5,286046994.6,N
1567936935.3,286046993.8,N
1567936955.2,286046992.6,N
1567936975.0,286046992.8,N
1567936975.9,286046992.8,N
1567936995.8,286046992.2,N
1567937015.6,286046992.8,N
1567937035.4,286046991.3,N
1567937055.3,286046991.1,N
1567937075.1,286046989.0,N
1567937095.9,286046993.1,N
1567937115.7,286046996.2,N
1567937135.5,286046992.7,N
1567937155.4,286046990.6,N
1567937175.2,286046991.7,N
1567937195.0,286046993.1,N
1567937195.9,286046993.1,N
1567937215.8,286046992.7,N
1567937235.6,286046992.7,N
1567937255.5,286046992.7,N
1567937275.3,286046991.9,N
1567937295.1,286046992.9,N
1567937315.9,286046994.2,N
1567937335.7,286046998.3,N
1567937355.5,286046995.5,N
1567937375.4,286046994.5,N
1567937395.2,286046992.9,Y
1567937415.1,286047000.1,P
1567937416.0,286047000.1,N
1567937435.8,286047002.4,N
1567937455.6,286047000.0,N
1567937475.5,286047000.0,N
1567937495.3,286047002.2,N
1567937515.2,286047003.2,N
1567937535.9,286047005.4,N
1567937555.7,286047003.1,N
1567937575.6,286047004.2,N
1567937595.4,286047002.2,N
1567937615.2,286047000.6,N
1567937635.1,286047002.6,N
1567937636.0,286047002.6,N
1567937655.8,286047003.7,N
1567937675.7,286047003.9,N
1567937695.5,286047000.1,N
1567937715.3,286046999.1,N
1567937735.2,286047000.1,N
1567937755.9,286047002.5,N
1567937775.7,286047001.5,N
1567937795.6,286046998.2,N
1567937815.4,286047001.2,N
1567937835.3,286047002.7,N
1567937855.1,286047001.0,N
1567937856.0,286047001.0,N
1567937875.8,286046997.5,N
1567937895.7,286046993.5,N
1567937915.5,286046993.2,N
1567937935.3,286046993.0,N
1567937955.2,286046990.2,Y
1567937975.0,286046992.8,P
1567937975.9,286046992.8,N
1567937995.8,286046995.9,N
1567938015.6,286046992.1,N
1567938035.4,286046994.6,N
1567938055.3,286046994.7,N
1567938075.1,286046992.3,N
1567938095.9,286046990.6,Y
1567938115.7,286046998.8,P
1567938135.5,286046998.5,N
1567938155.4,286047002.4,N
1567938175.2,286047004.3,N
1567938195.0,286047002.1,N
1567938195.9,286047002.1,N
1567938215.8,286047002.5,N
1567938235.6,286047003.7,N
1567938255.5,286047003.1,N
1567938275.3,286047000.2,N
1567938295.1,286046998.7,N
1567938315.9,286047000.9,N
1567938335.7,286046998.6,N
1567938355.5,286047000.7,N
1567938375.4,286047000.4,N
1567938395.2,286047000.6,N
1567938415.1,286047001.0,N
1567938416.0,286047001.0,N
1567938435.8,286047000.5,N
1567938455.6,286047001.4,N
1567938475.5,286047001.4,N
1567938495.3,286047003.4,N
1567938515.1,286047003.1,N
1567938535.9,286047002.2,N
1567938555.7,286047002.3,N
1567938575.6,286046999.4,N
1567938595.4,286046996.0,N
1567938615.2,286046990.1,Y
1567938635.1,286046990.1,P
1567938636.0,286046990.1,N
1567938655.8,286046992.5,N
1567938675.7,286046993.8,N
1567938695.5,286046997.3,N
1567938715.3,286047001.1,N
1567938735.2,286046998.9,N
1567938755.0,286046999.5,N
1567938755.9,286046999.5,N
1567938775.8,286046995.7,N
1567938795.6,286046998.3,N
1567938815.4,286046999.5,N
1567938835.3,286046996.7,N
1567938855.1,286047000.6,N
1567938875.8,286047002.8,N
1567938895.7,286047002.2,N
1567938915.5,286047001.8,N
1567938935.4,286047003.6,N
1567938955.2,286047003.4,N
1567938975.0,286047002.4,N
1567938975.9,286047002.4,N
1567938995.8,286046998.1,N
1567939015.6,286046998.1,N
1567939035.5,286046999.7,N
1567939055.3,286047000.1,N
1567939075.1,286047004.0,N
1567939095.9,286047003.2,N
1567939115.7,286047006.0,N
1567939135.5,286047003.9,N
1567939155.4,286046999.8,N
1567939175.2,286047000.9,N
1567939195.1,286047002.6,N
1567939196.0,286047002.6,N
1567939215.8,286047003.3,N
1567939235.6,286047005.1,N
1567939255.5,286047004.6,N
1567939275.3,286047007.5,N
1567939295.1,286047006.7,N
1567939315.9,286047004.1,N
1567939335.7,286047002.5,N
1567939355.6,286047001.7,N
1567939375.4,286047002.0,N
1567939395.2,286047003.8,N
1567939415.1,286047004.2,N
1567939416.0,286047004.2,N
1567939435.8,286047001.3,N
1567939455.6,286047002.4,N
1567939475.5,286047001.2,N
1567939495.3,286047001.2,N
1567939515.2,286047002.0,N
1567939535.9,286047003.5,N
1567939555.7,286047006.0,N
1567939575.6,286047001.7,N
1567939595.4,286046998.7,N
1567939615.2,286046998.9,N
1567939635.1,286047000.7,N
1567939636.0,286047000.7,N
1567939655.8,286046996.0,N
1567939675.7,286046993.8,N
1567939695.5,286046992.9,N
1567939715.3,286046990.6,N
1567939735.2,286046994.3,N
1567939755.0,286046995.9,N
1567939755.9,286046995.9,N
1567939775.7,286046997.8,N
1567939795.6,286046996.6,N
1567939815.4,286046998.2,N
1567939835.3,286047003.9,N
1567939855.1,286046999.8,N
1567939856.0,286046999.8,N
1567939875.8,286046999.3,N
1567939895.7,286046993.6,N
1567939915.5,286046992.5,N
1567939935.4,286046993.1,N
1567939955.2,286046990.1,N
1567939975.0,286046992.2,N
1567939975.9,286046992.2,N
1567939995.8,286046992.6,N
1567940015.6,286046992.4,N
1567940035.4,286046990.4,N
1567940055.3,286046994.4,N
1567940075.1,286046993.7,N
1567940095.9,286046992.2,N
1567940115.7,286046995.2,N
1567940135.5,286046995.6,N
1567940155.4,286046993.6,N
1567940175.2,286046992.5,N
1567940195.0,286046990.2,Y
1567940195.9,286046990.2,P
1567940215.8,286046998.0,N
1567940235.6,286046997.9,N
1567940255.5,286046995.5,N
1567940275.3,286046993.8,N
1567940295.1,286046995.2,N
1567940315.9,286046996.3,N
1567940335.7,286046994.1,N
1567940355.5,286046993.7,N
1567940375.4,286046995.5,N
1567940395.2,286046997.1,N
